This demonstration page uses our WeatherBlox Daily Observations layout. Learn more.

Left ArrowRight Arrow

Hourly Observations for December 13, 2017

Temp ( °F °C ) Dew Point ( °F °C ) Humidity (%) Winds ( mph kmh ) Pressure ( in mb ) Visibility ( mi km ) Precip ( " mm )
12:53 am 00:53 Clear 32 0 24 -4.4 73 73 Calm 30.18 1022 10 16 0.00 0.00
1:53 am 01:53 Clear 27 -2.8 23 -5 85 85 N 5 7 30.16 1021 10 16 0.00 0.00
2:53 am 02:53 Clear 26 -3.3 22 -5.6 84 84 N 6 9 30.14 1021 10 16 0.00 0.00
3:53 am 03:53 Clear 25 -3.9 21 -6.1 85 85 N 3 6 30.13 1020 10 16 0.00 0.00
4:53 am 04:53 Clear 25 -3.9 21 -6.1 85 85 Calm 30.10 1019 10 16 0.00 0.00
5:53 am 05:53 Clear 24 -4.4 20 -6.7 84 84 Calm 30.10 1019 10 16 0.00 0.00
6:53 am 06:53 Clear 23 -5 20 -6.7 88 88 Calm 30.11 1020 10 16 0.00 0.00
7:53 am 07:53 Sunny 23 -5 20 -6.7 88 88 NNE 3 6 30.13 1020 10 16 0.00 0.00
8:53 am 08:53 Sunny 32 0 26 -3.3 79 79 Calm 30.11 1020 10 16 0.00 0.00
9:53 am 09:53 Sunny 39 3.9 28 -2.2 65 65 Calm 30.11 1020 10 16 0.00 0.00
10:53 am 10:53 Sunny 52 11.1 28 -2.2 40 40 SW 8 13 30.09 1019 10 16 0.00 0.00
11:53 am 11:53 Sunny 60 15.6 24 -4.4 25 25 WSW 13 20 30.04 1017 10 16 0.00 0.00
12:53 pm 12:53 Sunny 64 17.8 25 -3.9 23 23 W 12 19 29.99 1016 10 16 0.00 0.00
1:53 pm 13:53 Sunny 67 19.4 27 -2.8 22 22 SSW 12 19 29.95 1014 10 16 0.00 0.00
2:53 pm 14:53 Sunny 69 20.6 24 -4.4 18 18 SW 15 24 29.91 1013 10 16 0.00 0.00
3:53 pm 15:53 Sunny 68 20 24 -4.4 19 19 WSW 12 19 29.89 1012 10 16 0.00 0.00
4:53 pm 16:53 Sunny 68 20 25 -3.9 20 20 WSW 9 15 29.88 1012 10 16 0.00 0.00
5:53 pm 17:53 Clear 58 14.4 29 -1.7 33 33 SW 8 13 29.89 1012 10 16 0.00 0.00
6:53 pm 18:53 Clear 53 11.7 29 -1.7 40 40 W 7 11 29.91 1013 10 16 0.00 0.00
7:53 pm 19:53 Clear 49 9.4 30 -1.1 48 48 W 3 6 29.92 1013 10 16 0.00 0.00
8:53 pm 20:53 Clear 42 5.6 30 -1.1 62 62 NNW 7 11 29.91 1013 10 16 0.00 0.00
9:53 pm 21:53 Clear 37 2.8 30 -1.1 76 76 N 9 15 29.91 1013 10 16 0.00 0.00
10:53 pm 22:53 Clear 39 3.9 28 -2.2 65 65 Calm 29.90 1013 10 16 0.00 0.00
11:53 pm 23:53 Clear 35 1.7 26 -3.3 70 70 VRB 7 11 29.89 1012 10 16 0.00 0.00

Powered by AerisWeather